Notices

What's New in latest Release from April 7th, 2021:

- Updated Glossary, including Speed of Maximum Gust, and Total Hourly Precipitation

- Updated national and regional climate services offices contacts and prices information

- Addition of station inventory lists for 1981-2010, 1971-2000, and 1961-1990 Normals.

If you haven't already, please take our survey and provide feedback about our website: https://eccc.sondage-survey.ca/f/LanguageSelection.aspx?s=442ca660-fcf1-47c0-95a9-59707d6fd709

Hourly Data Report for October 21, 2019

SAINT JOHN A
NEW BRUNSWICK
Current Station Operator: NAVCAN

45°18'58.000" N
65°53'24.000" W
108.80 m
8104901
71609
YSJ

Download Data

Hourly Data (October 2019)
Hourly Data Report for October 21, 2019
TIME
LST
Temp Definition
°C
Dew Point Definition
°C
Rel Hum Definition
%
Precip. Amount Definition
mm

Wind Dir Definition
10's deg

Wind Spd Definition
km/h
Visibility Definition
km
Stn Press Definition
kPa
Hmdx Definition


Wind Chill Definition


Weather Definition


00:00 1.0 0.8 98   36 1 24.1 100.63     LegendNANA
01:00 1.1 0.8 98   36 3 24.1 100.61     LegendNANA
02:00 2.8 2.6 99   36 3 24.1 100.58     Mostly Cloudy
03:00 2.6 2.1 96   18 4 24.1 100.63     LegendNANA
04:00 3.6 3.3 97   36 2 24.1 100.63     LegendNANA
05:00 3.7 3.3 97   9 7 24.1 100.63     Cloudy
06:00 4.7 4.2 96   29 3 24.1 100.67     LegendNANA
07:00 2.4 2.1 98   0 1 24.1 100.70     LegendNANA
08:00 4.9 4.6 98   0 1 24.1 100.76     Mainly Clear
09:00 9.7 5.9 77   18 3 24.1 100.81     LegendNANA
10:00 12.2 6.4 68   18 8 24.1 100.78     LegendNANA
11:00 12.7 6.5 66   22 9 24.1 100.73     Mainly Clear
12:00 13.8 5.3 56   28 11 24.1 100.64     LegendNANA
13:00 14.5 4.3 50   29 11 24.1 100.61     LegendNANA
14:00 15.2 4.2 48   27 7 24.1 100.59     Mainly Clear
15:00 14.4 8.2 66   19 16 24.1 100.65     LegendNANA
16:00 13.0 7.7 70   21 9 24.1 100.67     LegendNANA
17:00 11.2 7.9 80   20 8 24.1 100.72     Clear
18:00 9.4 7.3 87   22 6 24.1 100.79     LegendNANA
19:00 4.5 4.1 97   8 4 24.1 100.80     LegendNANA
20:00 3.4 2.9 97   36 1 24.1 100.87     Clear
21:00 2.2 1.9 98   5 4 24.1 100.89     LegendNANA
22:00 1.2 1.1 99   2 5 1.6 100.93     Fog
23:00 1.5 1.4 100   3 6 12.9 100.92     Mainly Clear

Notes on Data Quality.

Legend

  • E = Estimated
  • M = Missing
  • NA = Not Available*
  • [empty] = Indicates an unobserved value
Date modified: